Effective Sunday, March 17, 2024, the National Weather Service National Data Buoy Center will discontinue its Dial-A-Buoy Interactive Voice Response system. For more information, see Service Change Notice 24-06 (PDF).

Station PORO3 - 9431647 - Port Orford, OR Image indicating link to RSS feed of recent meteorological observations for station PORO3


Conditions at PORO3 as of
(7:00 am PST)
1500 GMT on 02/24/2024:
     

Click on the graph icon in the table below to see a time series plot of the last five days of that observation.

5-day plot - Wind Direction Wind Direction (WDIR):NNW ( 330 deg true )
5-day plot - Wind Speed Wind Speed (WSPD): 11.1 kts
5-day plot - Wind Gust Wind Gust (GST): 13.0 kts
5-day plot - Wind Speed at 10 Meters Wind Speed at 10 meters (WSPD10M): 11.7 kts
5-day plot - Wind Speed at 20 Meters Wind Speed at 20 meters (WSPD20M): 11.7 kts
5-day plot -  Wind Speed, Wind Gust and Atmospheric Pressure Combined plot of Wind Speed, Gust, and Air Pressure
NOS Water Level Observation Network Water Level
Previous observations
TIME
(PST)
5-day plot - Wind Direction
WDIR
 
5-day plot - Wind Speed
WSPD
kts
5-day plot - Wind Gust
GST
kts
5-day plot - Wave Height
WVHT
ft
5-day plot - Dominant Wave Period
DPD
sec
5-day plot - Average Wave Period
APD
sec
5-day plot - Mean Wave Direction
MWD
 
5-day plot - Atmospheric Pressure
PRES
in
5-day plot - Pressure Tendency
PTDY
in
5-day plot - Air Temperature
ATMP
°F
5-day plot - Water Temperature
WTMP
°F
5-day plot - Dew Point
DEWP
°F
5-day plot - Salinity
SAL
psu
5-day plot - Visibility
VIS
nmi
5-day plot - Tide (above MLLW)
TIDE
ft
2024-02-24 06:54 amNNW 8.0 11.1------------
2024-02-24 06:48 amNNW 7.0 11.1----30.11-- 53.4----
2024-02-24 06:42 amNNW 8.0 13.0----30.11-- 53.4----
2024-02-24 06:36 amNNW 6.0 8.9----30.11-- 53.4----
2024-02-24 06:30 am N 7.0 11.1----30.11- 49.6 53.4----
2024-02-24 06:24 am N 9.9 14.0----30.11- 49.6 53.4----
2024-02-24 06:18 am N 9.9 14.0----30.11- 49.5 53.4----
2024-02-24 06:12 am N 9.9 14.0----30.11- 49.5 53.4----
2024-02-24 06:06 am N 8.9 13.0----30.11- 49.3 53.4----
2024-02-24 06:00 am N 9.9 14.0----30.11+0.00 49.1 53.4----
2024-02-24 05:54 am N 8.9 12.0----30.12- 49.3 53.4----
2024-02-24 05:48 am N 11.1 14.0------- 53.4----
2024-02-24 05:42 am N 11.1 14.0------- 53.4----
2024-02-24 05:36 am N 11.1 15.0------- 53.4----
2024-02-24 05:30 am N 12.0 15.0----30.11-------
2024-02-24 05:24 am N 11.1 15.0----30.11-------
2024-02-24 05:18 am N 12.0 15.0----30.10-------
2024-02-24 05:12 am N 13.0 15.0----30.11-------
2024-02-24 05:06 amNNW 12.0 15.9----30.11-------
2024-02-24 05:00 am--------- 50.0 53.4----
2024-02-24 04:54 am--------- 49.6 53.2----
2024-02-24 04:48 am N 11.1 14.0----30.11- 49.5 53.2----
2024-02-24 04:42 am N 11.1 13.0----30.11- 49.5 53.2----
2024-02-24 04:36 am N 12.0 15.0----30.11- 49.6 53.2----
2024-02-24 04:30 am N 11.1 15.0----30.10-------
2024-02-24 04:24 am N 12.0 14.0----30.11-------
2024-02-24 04:18 am N 14.0 17.1----30.11-- 53.2----
2024-02-24 04:12 amNNW 11.1 14.0----30.10-- 53.2----
2024-02-24 04:06 amNNW 8.9 11.1----30.10-- 53.2----
2024-02-24 04:00 am N 8.9 12.0----30.10-0.01 53.1 53.2----
2024-02-24 03:54 am N 9.9 12.0----30.11- 52.3 53.2----
2024-02-24 03:48 am N 8.9 12.0----30.11-- 53.2----
2024-02-24 03:42 amNNE 8.9 9.9----30.11-- 53.2----
2024-02-24 03:36 amNNE 8.0 11.1----30.11-- 53.2----
2024-02-24 03:30 amNNE 8.0 14.0----30.11- 54.9 53.4----
2024-02-24 03:24 amNNE 9.9 14.0----30.11- 55.4 53.4----
2024-02-24 03:18 am NE 11.1 14.0----30.11- 55.4 53.4----
2024-02-24 03:12 amNNE 11.1 13.0----30.11- 55.0 53.4----
2024-02-24 03:06 amNNE 8.9 12.0----30.11- 55.0 53.4----
2024-02-24 03:00 am-------30.11-- 53.4----
2024-02-24 02:54 am-------30.11-- 53.4----
2024-02-24 02:48 am N 9.9 13.0----30.11- 55.0 53.4----
2024-02-24 02:42 am N 11.1 14.0----30.11- 55.4 53.4----
2024-02-24 02:36 am N 9.9 12.0----30.11- 55.2 53.4----
2024-02-24 02:30 am N 9.9 13.0----30.11-- 53.4----
2024-02-24 02:24 am N 8.9 12.0----30.11-- 53.4----
2024-02-24 02:18 am-------30.11- 55.8 53.4----
2024-02-24 02:12 am-------30.11- 55.2 53.4----
2024-02-24 02:06 am-------30.11- 54.1 53.4----
2024-02-24 02:00 am-------30.11-0.01- 53.4----
2024-02-24 01:54 am-------30.11-- 53.4----
2024-02-24 01:48 am N 11.1 13.0----30.11-- 53.4----
2024-02-24 01:42 am N 9.9 12.0----30.11-- 53.4----
2024-02-24 01:36 am N 8.0 12.0----30.11-- 53.4----
2024-02-24 01:30 am N 8.9 13.0------------
2024-02-24 01:24 am N 9.9 13.0------------
2024-02-24 01:18 am N 9.9 12.0----30.11- 53.4 53.4----
2024-02-24 01:12 am N 9.9 12.0----30.11- 53.2 53.4----
2024-02-24 01:06 am N 11.1 14.0----30.11- 53.2 53.4----
2024-02-24 01:00 am N 9.9 13.0----30.11-0.01 53.1 53.4----
2024-02-24 12:54 am N 11.1 13.0----30.11- 52.9 53.4----
2024-02-24 12:48 am N 11.1 14.0----30.11- 52.7 53.4----
2024-02-24 12:42 am N 9.9 13.0----30.11- 52.3 53.4----
2024-02-24 12:36 am N 8.0 12.0----30.11- 52.2 53.4----
2024-02-24 12:30 am N 9.9 14.0----30.11-- 53.6----
2024-02-24 12:24 am N 9.9 13.0----30.11-- 53.6----
2024-02-24 12:18 am N 9.9 13.0----30.11-- 53.6----
2024-02-24 12:12 am N 11.1 15.0----30.11-- 53.6----
2024-02-24 12:06 am N 12.0 15.0----30.11-- 53.8----
2024-02-24 12:00 am N 9.9 14.0------- 53.8----
2024-02-23 11:54 pm N 9.9 13.0------- 53.8----
2024-02-23 11:48 pm N 9.9 13.0----30.11-- 53.8----
2024-02-23 11:42 pm N 9.9 15.0----30.11-- 53.8----
2024-02-23 11:36 pm N 9.9 14.0----30.11-- 53.8----
2024-02-23 11:30 pm N 11.1 14.0----30.11-------
2024-02-23 11:24 pm N 11.1 13.0----30.12-------
2024-02-23 11:18 pm N 9.9 14.0----30.12- 52.7 53.8----
2024-02-23 11:12 pm N 8.9 12.0----30.12- 53.2 53.8----
2024-02-23 11:06 pm N 8.9 14.0----30.12- 53.8 53.8----
2024-02-23 11:00 pm-------30.12-0.01 53.6 53.8----
2024-02-23 10:54 pm-------30.12- 53.8 53.8----
2024-02-23 10:48 pm N 11.1 15.0----30.12-- 53.8----
2024-02-23 10:42 pm N 9.9 14.0----30.12-- 53.8----
2024-02-23 10:36 pm N 9.9 14.0----30.13-- 53.8----
2024-02-23 10:30 pm-------30.12- 56.3 53.8----
2024-02-23 10:24 pm-------30.12- 58.1 53.8----
2024-02-23 10:18 pmNNE 7.0 13.0----30.12-- 53.8----
2024-02-23 10:12 pmNNE 9.9 14.0----30.13-- 53.8----
2024-02-23 10:06 pmNNE 9.9 12.0----30.13-- 53.8----
2024-02-23 10:00 pmNNE 8.9 14.0----30.13-0.01 59.5 53.8----
2024-02-23 09:54 pm NE 8.9 14.0----30.13- 59.4 53.8----
2024-02-23 09:48 pmNNE 8.0 11.1----30.13-- 53.8----
2024-02-23 09:42 pmNNE 8.0 11.1----30.13-- 53.8----
2024-02-23 09:36 pm NE 8.9 14.0----30.13-- 53.8----
2024-02-23 09:30 pm N 7.0 9.9----30.13- 58.3 53.8----
2024-02-23 09:24 pmNNE 8.0 12.0----30.14- 58.5 53.8----
2024-02-23 09:18 pmNNE 8.0 11.1----30.14- 58.1 53.8----
2024-02-23 09:12 pm N 7.0 12.0----30.14- 57.6 53.8----
2024-02-23 09:06 pm N 8.0 12.0----30.13- 57.7 53.8----
2024-02-23 09:00 pm N 8.0 11.1----30.14+0.00- 53.8----
2024-02-23 08:54 pm N 8.0 12.0----30.14-- 53.8----
2024-02-23 08:48 pm N 8.9 11.1----30.13- 57.7 53.8----
2024-02-23 08:42 pm N 8.9 12.0----30.13- 57.0 53.8----
2024-02-23 08:36 pm N 8.9 12.0----30.13- 56.5 53.8----
2024-02-23 08:30 pm N 8.0 12.0----30.13- 56.1 53.8----
2024-02-23 08:24 pm N 8.9 12.0----30.13- 56.3 53.8----
2024-02-23 08:18 pm N 8.9 12.0----30.13- 56.8 53.8----
2024-02-23 08:12 pm N 8.9 12.0----30.13- 57.4 53.8----
2024-02-23 08:06 pm N 8.9 13.0----30.13- 57.6 53.8----
2024-02-23 08:00 pm N 9.9 12.0----30.13-0.01 57.4-----
2024-02-23 07:54 pm N 8.9 11.1----30.14- 56.8-----
2024-02-23 07:48 pm N 8.9 12.0----30.14-- 53.8----
2024-02-23 07:42 pm N 8.9 12.0----30.14-- 53.8----
2024-02-23 07:36 pm N 8.9 12.0----30.14-- 53.8----
2024-02-23 07:30 pmNNW 9.9 12.0----30.14- 55.4 53.8----
2024-02-23 07:24 pmNNW 8.9 11.1----30.14- 55.9 53.8----
2024-02-23 07:18 pmNNW 8.9 11.1----30.14- 55.8 53.8----
2024-02-23 07:12 pmNNW 9.9 12.0----30.14- 54.3 53.8----
2024-02-23 07:06 pm N 9.9 12.0----30.14- 54.1 53.8----
2024-02-23 07:00 pm N 9.9 12.0----30.14-0.01 54.1 53.8----
2024-02-23 06:54 pmNNW 9.9 13.0----30.14- 54.0 54.0----
2024-02-23 06:48 pm N 11.1 13.0----30.14- 54.0 54.0----
2024-02-23 06:42 pm N 11.1 13.0----30.14- 54.0 54.0----
2024-02-23 06:36 pm N 9.9 13.0----30.14- 54.1 54.0----
2024-02-23 06:30 pm N 11.1 14.0----30.14- 54.5 54.0----
2024-02-23 06:24 pm N 12.0 14.0----30.14- 54.7 54.0----
2024-02-23 06:18 pm N 12.0 14.0----30.14- 54.7 54.0----
2024-02-23 06:12 pm N 11.1 14.0----30.14- 55.0 54.0----
2024-02-23 06:06 pm N 9.9 14.0----30.14- 55.4 54.0----
2024-02-23 06:00 pm N 9.9 13.0----30.14-0.03 55.6 54.0----
2024-02-23 05:54 pm N 9.9 14.0----30.14- 55.6 54.1----
2024-02-23 05:48 pm N 11.1 15.0----30.14- 55.8 54.1----
2024-02-23 05:42 pm N 9.9 15.0----30.14- 55.8 54.1----
2024-02-23 05:36 pm N 11.1 15.0----30.14- 56.1 54.1----
2024-02-23 05:30 pm N 12.0 15.9----30.14-------
2024-02-23 05:24 pm N 9.9 14.0----30.14-------
2024-02-23 05:18 pm N 11.1 15.0----30.15-- 54.1----
2024-02-23 05:12 pm N 11.1 15.0----30.15-- 54.1----
2024-02-23 05:06 pm N 8.9 12.0----30.15-- 54.3----
2024-02-23 05:00 pm N 8.9 13.0----30.15-0.04- 54.3----
2024-02-23 04:54 pmNNW 8.9 12.0----30.15-- 54.3----
2024-02-23 04:48 pmNNW 8.9 14.0----30.15-- 54.3----
2024-02-23 04:42 pm N 9.9 15.0----30.15-- 54.3----
2024-02-23 04:36 pm N 9.9 15.0----30.15-- 54.5----
2024-02-23 04:30 pmNNW 11.1 15.9----30.15-- 54.5----
2024-02-23 04:24 pm N 8.0 15.0----30.15-- 54.5----
2024-02-23 04:18 pm N 9.9 14.0----30.15-- 54.5----
2024-02-23 04:12 pm N 9.9 15.9----30.15-- 54.7----
2024-02-23 04:06 pmNNW 8.9 11.1----30.15-- 54.5----
2024-02-23 04:00 pm N 8.0 15.0----30.15-0.05------
2024-02-23 03:54 pm N 8.9 15.9----30.15-------
2024-02-23 03:48 pm N 11.1 14.0----30.16- 61.0 54.7----
2024-02-23 03:42 pm N 8.0 15.0----30.16- 61.5 54.9----
2024-02-23 03:36 pm N 7.0 12.0----30.16- 62.1 54.9----
2024-02-23 03:30 pm N 8.0 12.0----30.16- 62.1 54.7----
2024-02-23 03:24 pm N 8.9 14.0----30.16- 61.9 54.5----
2024-02-23 03:18 pm N 9.9 13.0----30.16-- 54.5----
2024-02-23 03:12 pmNNW 8.9 12.0----30.16-- 54.3----
2024-02-23 03:06 pm N 8.0 15.0----30.17-- 54.3----
2024-02-23 03:00 pm N 11.1 15.0----30.17-0.06 61.7 54.5----
2024-02-23 02:54 pm N 9.9 13.0----30.17- 62.2 54.7----
2024-02-23 02:48 pm N 7.0 9.9----30.17- 62.8 54.7----
2024-02-23 02:42 pm N 6.0 11.1----30.18- 62.8 54.5----
2024-02-23 02:36 pmNNE 9.9 14.0----30.19- 62.1 54.7----
2024-02-23 02:30 pm N 6.0 12.0----30.18- 62.8 54.5----
2024-02-23 02:24 pm N 6.0 13.0----30.18- 62.4 54.5----
2024-02-23 02:18 pmNNW 9.9 13.0----30.18- 61.7 54.7----
2024-02-23 02:12 pmNNW 8.0 11.1----30.19- 62.2 54.7----
2024-02-23 02:06 pmNNW 8.0 13.0----30.19- 62.1 54.7----
2024-02-23 02:00 pmNNW 8.9 15.0----30.19-0.04 61.9 54.7----
2024-02-23 01:54 pm N 8.9 14.0----30.19- 62.6 54.7----
2024-02-23 01:48 pm N 8.9 14.0----30.19- 62.8 54.7----
2024-02-23 01:42 pmNNW 8.9 13.0----30.19- 63.1 54.7----
2024-02-23 01:36 pm NW 6.0 9.9----30.19- 62.6 54.7----
2024-02-23 01:30 pm NW 7.0 11.1----30.20- 62.8 54.5----
2024-02-23 01:24 pm NW 6.0 8.9----30.20- 63.0 54.5----
2024-02-23 01:18 pm NW 7.0 9.9----30.20- 63.1 54.3----
2024-02-23 01:12 pm NW 6.0 8.9----30.20- 63.5 54.1----
2024-02-23 01:06 pmNNW 4.1 9.9----30.20- 64.4 54.0----
2024-02-23 01:00 pm N 6.0 8.9----30.20-0.03 63.5 53.8----
2024-02-23 12:54 pm N 5.1 7.0----30.21- 63.0 53.8----
2024-02-23 12:48 pm N 4.1 8.0----30.21- 61.5 53.8----
2024-02-23 12:42 pm N 1.9 2.9----30.21- 59.4 53.8----
2024-02-23 12:36 pmESE 1.9 4.1----30.21- 57.6 53.8----
2024-02-23 12:30 pm SE 2.9 4.1----30.21- 57.0 53.8----
2024-02-23 12:24 pmSSE 2.9 5.1----30.22- 57.2 53.8----
2024-02-23 12:18 pmSSE 4.1 5.1----30.22- 56.8 53.8----
2024-02-23 12:12 pm SE 2.9 4.1----30.22- 57.4 53.8----
2024-02-23 12:06 pm SE 2.9 4.1----30.22- 57.7 53.8----
2024-02-23 12:00 pm SW 1.9 5.1----30.22+0.00 57.9 53.8----
2024-02-23 11:54 amSSE 1.9 5.1----30.23- 57.0 53.8----
2024-02-23 11:48 am SE 1.9 2.9----30.23- 56.5 53.8----
2024-02-23 11:42 amESE 2.9 2.9----30.23- 55.9 53.8----
2024-02-23 11:36 amESE 1.9 1.9----30.23- 57.0 53.8----
2024-02-23 11:30 am SE 1.9 1.9----30.23- 57.2 53.8----
2024-02-23 11:24 am SE 1.9 2.9----30.23- 57.2 53.6----
2024-02-23 11:18 am SE 1.9 1.9----30.23- 57.9 53.6----
2024-02-23 11:12 am SE 1.9 1.9----30.23- 58.5 53.6----
2024-02-23 11:06 am- 0.0 1.0----30.23- 59.4 53.6----
2024-02-23 11:00 amSSW 1.0 1.9----30.23-0.01 58.5 53.6----
2024-02-23 10:54 amSSW 1.0 1.9----30.23- 57.7 53.6----
2024-02-23 10:48 am SW 1.9 2.9----30.23- 57.0 53.4----
2024-02-23 10:42 am W 2.9 4.1----30.23- 56.1 53.4----
2024-02-23 10:36 am S 2.9 4.1----30.23- 56.1 53.4----
2024-02-23 10:30 amSSE 5.1 7.0----30.23- 55.4 53.4----
2024-02-23 10:24 amSSE 6.0 7.0----30.23- 55.9 53.4----
2024-02-23 10:18 am S 5.1 6.0----30.23- 59.0 53.4----
2024-02-23 10:12 am NW 1.9 5.1----30.23- 61.5 53.4----
2024-02-23 10:06 am N 5.1 8.9----30.23- 61.3 53.4----
2024-02-23 10:00 am N 4.1 7.0----30.23+0.00 61.3 53.2----
2024-02-23 09:54 am N 6.0 7.0----30.23- 60.8 53.2----
2024-02-23 09:48 amNNE 5.1 8.0----30.23- 60.1 53.2----
2024-02-23 09:42 am NE 5.1 8.0----30.23- 59.4 53.2----
2024-02-23 09:36 amENE 5.1 7.0----30.23- 59.2 53.2----
2024-02-23 09:30 amNNE 5.1 7.0----30.23- 58.6 53.2----
2024-02-23 09:24 am N 5.1 8.0----30.23- 58.6 53.2----
2024-02-23 09:18 am N 6.0 8.0----30.23- 57.9 53.2----
2024-02-23 09:12 am N 5.1 8.0----30.23- 58.3 53.2----
2024-02-23 09:06 am N 4.1 5.1----30.23- 58.5 53.2----
2024-02-23 09:00 am N 2.9 6.0----30.23-0.02 57.6 53.2----
2024-02-23 08:54 amNNE 8.0 11.1----30.23- 56.5 53.2----
2024-02-23 08:48 amNNE 7.0 9.9----30.23- 57.0 53.2----
2024-02-23 08:42 amNNW 1.9 5.1----30.23- 57.2 53.2----
2024-02-23 08:36 amNNW 4.1 6.0----30.23- 56.1 53.2----
2024-02-23 08:30 amNNE 5.1 6.0----30.23- 55.6 53.1----
2024-02-23 08:24 amNNE 5.1 7.0----30.23- 55.2 53.1----
2024-02-23 08:18 am N 5.1 6.0----30.24- 54.9 53.1----
2024-02-23 08:12 am N 5.1 7.0----30.24- 54.1 53.1----
2024-02-23 08:06 am N 5.1 6.0----30.24- 53.4 53.1----
2024-02-23 08:00 am N 6.0 7.0----30.24+0.00 52.7 53.1----
2024-02-23 07:54 amNNE 5.1 5.1----30.24- 52.3 53.1----
2024-02-23 07:48 am NE 1.9 4.1----30.24- 52.7 53.1----
2024-02-23 07:42 am N 4.1 8.0----30.24- 52.2 53.1----
2024-02-23 07:36 am N 5.1 8.0----30.24- 51.4 53.1----
2024-02-23 07:30 am NW 1.0 4.1----30.24- 51.3 53.2----
2024-02-23 07:24 am NW 4.1 7.0----30.24- 50.9 53.2----
2024-02-23 07:18 am N 4.1 7.0----30.23- 50.5 53.2----
2024-02-23 07:12 am N 5.1 8.9----30.23- 50.4 53.2----
2024-02-23 07:06 amNNE 7.0 11.1----30.24- 50.2 53.2----
2024-02-23 07:00 amNNE 8.0 9.9----30.23-0.02 50.2 53.2----
2024-02-23 06:54 amNNE 7.0 9.9----30.23- 50.4 53.2----